Printer-friendly version

IAU Minor Planet Center

Minor Planet Center

MPEC 2004-M39 : 2004 MO3

The following Minor Planet Electronic Circular may be linked-to from your own Web pages, but must not otherwise be redistributed electronically.


Read MPEC 2004-M38 Read MPEC 2004-M40


M.P.E.C. 2004-M39                                Issued 2004 June 22, 16:30 UT

     The Minor Planet Electronic Circulars contain information on unusual
         minor planets and routine data on comets.  They are published
   on behalf of Commission 20 of the International Astronomical Union by the
          Minor Planet Center, Smithsonian Astrophysical Observatory,
                          Cambridge, MA 02138, U.S.A.

         Supported in part by the Steven and Michele Kirsch Foundation
             Prepared using the Tamkin Foundation Computer Network

                              MPC@CFA.HARVARD.EDU
          URL http://cfa-www.harvard.edu/iau/mpc.html  ISSN 1523-6714

                                   2004 MO3

Observations:
     K04M03O* C2004 06 21.32208 20 56 45.41 +06 47 54.7          17.7   EM039704
     K04M03O  C2004 06 21.33153 20 56 34.35 +06 46 29.3          17.7   EM039704
     K04M03O  C2004 06 21.34120 20 56 23.07 +06 45 02.4          17.6   EM039704
     K04M03O  C2004 06 21.35068 20 56 11.98 +06 43 37.6          17.9   EM039704
     K04M03O  C2004 06 21.36015 20 56 00.93 +06 42 13.0          17.9   EM039704
     K04M03O  C2004 06 21.93929 20 46 06.63 +05 18 40.9                 EM039246
     K04M03O  C2004 06 21.93974 20 46 06.17 +05 18 37.5                 EM039246
     K04M03O  C2004 06 21.94048 20 46 05.50 +05 18 32.1                 EM039246
     K04M03O  C2004 06 21.94161 20 46 04.19 +05 18 21.9                 EM039246
     K04M03O  C2004 06 22.01428 20 44 49.53 +05 08 40.2          17   R EM039461
     K04M03O  C2004 06 22.01463 20 44 49.18 +05 08 37.2                 EM039461
     K04M03O  C2004 06 22.01497 20 44 48.82 +05 08 34.6                 EM039461
     K04M03O  C2004 06 22.01532 20 44 48.47 +05 08 31.8                 EM039461
     K04M03O  C2004 06 22.01568 20 44 48.11 +05 08 29.1                 EM039461
     K04M03O  C2004 06 22.07834 20 43 57.01 +05 03 55.4          17.1 R EM039859
     K04M03O  C2004 06 22.07928 20 43 55.95 +05 03 47.0          17.1 R EM039859
     K04M03O  C2004 06 22.08637 20 43 48.99 +05 02 52.1          17.0 R EM039859
     K04M03O  C2004 06 22.08728 20 43 48.13 +05 02 45.2          17.0 R EM039859
     K04M03O  C2004 06 22.08819 20 43 47.17 +05 02 36.9          17.1 R EM039859
     K04M03O  C2004 06 22.14931 20 42 48.18 +04 50 58.3          17.2 R EM039932
     K04M03O  C2004 06 22.15625 20 42 41.50 +04 50 05.3          16.3 R EM039932
     K04M03O  C2004 06 22.15903 20 42 38.79 +04 49 44.3          17.5 R EM039932
     K04M03O  C2004 06 22.28407 20 40 42.61 +04 34 01.4          16.7 R EM039H06
     K04M03O  C2004 06 22.28449 20 40 42.22 +04 33 58.4          16.6 R EM039H06
     K04M03O  C2004 06 22.28491 20 40 41.81 +04 33 54.7          16.6 R EM039H06
     K04M03O  C2004 06 22.28612 20 40 40.63 +04 33 45.9          16.4 R EM039H06
     K04M03O  C2004 06 22.28652 20 40 40.24 +04 33 42.7          16.6 R EM039H06
     K04M03O  C2004 06 22.28693 20 40 39.85 +04 33 39.6          16.5 R EM039H06
     K04M03O  C2004 06 22.28735 20 40 39.46 +04 33 36.8          16.9 R EM039H06
     K04M03O  C2004 06 22.31978 20 40 08.89 +04 29 30.7          16.4 R EM039854
     K04M03O  C2004 06 22.32142 20 40 07.30 +04 29 18.5          16.4 R EM039854
     K04M03O  C2004 06 22.32324 20 40 05.61 +04 29 05.2          16.6 R EM039854
     K04M03O  C2004 06 22.33378 20 39 55.38 +04 27 45.2          16.6 R EM039854
     K04M03O  C2004 06 22.33461 20 39 54.66 +04 27 39.4          16.8 R EM039854
     K04M03O  C2004 06 22.33541 20 39 53.77 +04 27 33.0          16.4 R EM039854
     K04M03O  C2004 06 22.35977 20 39 31.49 +04 24 21.8          16.9 R EM039G70
     K04M03O  C2004 06 22.36689 20 39 24.64 +04 23 27.4          17.2 R EM039G70
     K04M03O  C2004 06 22.37416 20 39 17.66 +04 22 31.8          17.4 R EM039G70
     K04M03O 5C2004 06 22.38258 20 39 09.37 +04 21 29.8          17.2 R EM039673
     K04M03O 5C2004 06 22.38420 20 39 07.81 +04 21 17.6                 EM039673
     K04M03O 5C2004 06 22.38640 20 39 05.68 +04 21 01.1                 EM039673
     K04M03O 5C2004 06 22.38976 20 39 02.45 +04 20 35.7                 EM039673
     K04M03O 5C2004 06 22.39230 20 39 00.00 +04 20 16.7                 EM039673
     K04M03O 5C2004 06 22.39439 20 38 57.98 +04 20 00.9                 EM039673
     K04M03O "C2004 06 22.49318 20 37 31.36 +04 08 29.7                 EM039568
     K04M03O "C2004 06 22.49434 20 37 30.20 +04 08 20.7                 EM039568

Observer details:
246 Klet Observatory-KLENOT.  Observer M. Tichy.  1.06-m KLENOT Telescope
    + CCD.
461 Szeged University, Piszkesteto Stn. (Konkoly).  Observer K. Sarneczky.
    0.60-m Schmidt + CCD.
568 Mauna Kea.  Observers J. Pittichova, J. Bedient.  University of Hawaii
    2.2-m reflector + CCD.
673 Table Mountain Observatory, Wrightwood.  Observer J. Young.  0.6-m
    reflector + CCD.
704 Lincoln Laboratory ETS, New Mexico.  Observers M. Blythe, F. Shelly,
    M. Bezpalko, R. Huber, L. Manguso, D. Torres, R. Kracke, M. McCleary,
    H. Stange, A. Milner.  Measurers J. Stuart, R. Sayer, J. Evans, J. Kommers.
    1.0-m f/2.15 reflector + CCD.
854 Sabino Canyon Observatory, Tucson.  Observer J. E. McGaha.  0.356-m f/10.0
    Schmidt-Cassegrain + CCD.
859 Wykrota Observatory-CEAMIG.  Observer C. Jacques.  0.30-m f/3.0
    Schmidt-Cassegrain + CCD.
932 John J. McCarthy Obs., New Milford.  Observers M. Robson, D. Cartolano.
    0.4-m f/6.5 Schmidt-Cassegrain + CCD.
G70 Francisquito Observatory, Los Angeles.  Observer R. E. Jones.  0.30-m
    f/6.7 reflector + CCD.
H06 New Mexico Skies Observatory.  Observer R. Hutsebaut.  0.30-m reflector
    + CCD.

Orbital elements:
2004 MO3
Epoch 2004 July 14.0 TT = JDT 2453200.5                 MPC
M  61.53808              (2000.0)            P               Q
n   0.71977477     Peri.  297.68598     -0.98261065     +0.18073675
a   1.2331189      Node   252.75237     -0.15077278     -0.91040696
e   0.3366460      Incl.    2.55360     -0.10836918     -0.37214702
P   1.37           H   22.3           G   0.15           U   7
Residuals in seconds of arc
040621 704  0.5+  0.6+    040622 859  0.0   0.2+    040622 854  0.1+  0.2+
040621 704  0.0   0.0     040622 859  0.7+  0.5+    040622 854  1.3+  0.7+
040621 704  0.1+  0.2-    040622 859  0.0   0.7-    040622 854  0.4-  0.4+
040621 704  0.3-  0.1-    040622 932  0.7-  0.8-    040622 G70  0.1-  1.0+
040621 704  0.2-  0.0     040622 932  0.2+  0.2+    040622 G70  0.1+  0.3+
040621 246  0.2+  0.1-    040622 932  0.1+  0.8+    040622 G70  0.5+  0.6-
040621 246  0.2+  0.2+    040622 H06  0.3+  0.0     040622 673  0.3+  0.5+
040621 246  1.4+  0.7+    040622 H06  0.5+  0.2+    040622 673  0.3+  0.5+
040621 246  1.1-  0.3-    040622 H06  0.5+  0.3-    040622 673  0.2+  0.6+
040622 461  0.5-  0.4-    040622 H06  0.3+  0.1+    040622 673  0.3+  0.5+
040622 461  0.4-  0.6-    040622 H06  0.3+  0.0     040622 673  0.3+  0.6+
040622 461  0.6-  0.5-    040622 H06  0.4+  0.0     040622 673  0.2+  0.5+
040622 461  0.5-  0.5-    040622 H06  0.6+  0.4+    040622 568  0.3+  0.1+
040622 461  0.4-  0.3-    040622 854  0.6-  0.4-    040622 568  0.5-  0.3-
040622 859  0.1+  0.2+    040622 854  0.7-  0.1-
040622 859  1.8-  0.7-    040622 854  0.4+  0.4+

Ephemeris:
2004 MO3                 a,e,i = 1.23, 0.34, 3                   q = 0.8180
Date    TT    R. A. (2000) Decl.     Delta      r     Elong.  Phase     V
2004 06 14    01 20.86   +29 06.3    0.028    1.000    55.7   123.0    19.6
2004 06 16    23 46.47   +24 52.6    0.026    1.011    78.8    99.8    18.0
2004 06 18    22 23.38   +17 34.9    0.028    1.022   101.1    77.3    17.3
2004 06 20    21 24.39   +10 32.7    0.034    1.033   118.7    59.7    17.2
2004 06 22    20 45.02   +05 13.1    0.041    1.044   131.3    47.0    17.2
2004 06 24    20 18.22   +01 25.1    0.049    1.055   140.5    37.8    17.4
2004 06 26    19 59.20   -01 19.4    0.058    1.066   147.5    30.9    17.6
2004 06 28    19 45.14   -03 21.8    0.067    1.077   152.8    25.5    17.8
2004 06 30    19 34.39   -04 56.2    0.077    1.088   157.1    21.3    18.0
2004 07 02    19 25.92   -06 11.3    0.087    1.099   160.5    18.0    18.1
2004 07 04    19 19.10   -07 12.7    0.097    1.110   163.2    15.4    18.3

2004 07 14    18 59.02   -10 31.6    0.152    1.165   166.0    12.2    19.3
2004 07 24    18 51.31   -12 30.2    0.215    1.219   158.7    17.6    20.3
2004 08 03    18 50.58   -13 53.6    0.285    1.270   150.2    23.4    21.2
2004 08 13    18 54.57   -14 55.1    0.364    1.319   142.1    28.2    22.0

Kyle E. Smalley              (C) Copyright 2004 MPC           M.P.E.C. 2004-M39

Read MPEC 2004-M38 Read MPEC 2004-M40


Our Web policy. Index to the CBAT/MPC/ICQ pages.


Valid HTML 4.01!